Fallon, NV

5:44 PM PST on January 20, 2017 (GMT -0800)
Fallon Naval Air Station

Weather History for KNFL - April, 2012

Change the Weather History Date:

Friday, April 27, 2012

  Actual Average Record
Temperature  
Mean Temperature 48 °F -  
Max Temperature 63 °F 67 °F 84 °F (1987)
Min Temperature 33 °F 35 °F 16 °F (1955)
Degree Days  
Heating Degree Days 18    
Moisture  
Dew Point 22 °F    
Average Humidity 39    
Maximum Humidity 72    
Minimum Humidity 15    
Precipitation  
Precipitation 0.00 in - - ()
Sea Level Pressure  
Sea Level Pressure 30.08 in    
Wind  
Wind Speed 5 mph (NNW)    
Max Wind Speed 9 mph    
Max Gust Speed -    
Visibility 10 miles    
Events      
Averages and records for this station are not official NWS values.
T = Trace of Precipitation, MM = Missing Value Source: NWS Daily Summary

Daily Weather History Graph

Daily Weather History Graph

Search for Another Location

Airport or City:

Trip Planner

Search our weather history database for the weather conditions in past years. The results will help you decide how hot, cold, wet, or windy it might be!

Date:

Astronomy

Apr. 27, 2012 Rise Set
Actual Time 6:00 AM PDT 7:45 PM PDT
Civil Twilight 5:31 AM PDT 8:13 PM PDT
Nautical Twilight 4:56 AM PDT 8:48 PM PDT
Astronomical Twilight 4:19 AM PDT 9:26 PM PDT
Moon 10:43 AM PDT (4/27) 12:34 AM PDT (4/27)
Length of Visible Light 14h 42m
Length of Day
13h 44m
Waxing Crescent, 34% of the Moon is Illuminated
Apr 27
Waxing Crescent
Apr 29
First Quarter
May 5
Full
May 12
Last Quarter
May 20
New

Hourly Weather History & Observations

Time (PDT) Temp. Windchill Dew Point Humidity Pressure Visibility Wind Dir Wind Speed Gust Speed Precip Events Conditions
12:56 AM 41.0 °F 35.8 °F 23.0 °F 49% 30.04 in 10.0 mi ENE 8.1 mph - N/A   Clear
1:56 AM 42.1 °F 36.6 °F 24.1 °F 49% 30.04 in 10.0 mi NW 9.2 mph - N/A   Clear
2:56 AM 39.0 °F 34.0 °F 25.0 °F 57% 30.05 in 10.0 mi NNW 6.9 mph - N/A   Clear
3:56 AM 35.1 °F - 25.0 °F 67% 30.06 in 10.0 mi Calm Calm - N/A   Clear
4:56 AM 34.0 °F - 25.0 °F 70% 30.08 in 10.0 mi Calm Calm - N/A   Clear
5:56 AM 33.1 °F 26.9 °F 25.0 °F 72% 30.10 in 10.0 mi WSW 6.9 mph - N/A   Clear
6:13 AM 33.8 °F 27.7 °F 24.8 °F 70% 30.21 in 10.0 mi West 6.9 mph - N/A   Mostly Cloudy
6:56 AM 37.0 °F 34.5 °F 27.0 °F 67% 30.12 in 10.0 mi West 3.5 mph - N/A   Overcast
7:56 AM 43.0 °F 40.3 °F 26.1 °F 51% 30.14 in 10.0 mi WNW 4.6 mph - N/A   Mostly Cloudy
8:56 AM 46.0 °F 44.8 °F 26.1 °F 46% 30.13 in 10.0 mi West 3.5 mph - N/A   Scattered Clouds
9:56 AM 48.9 °F - 26.1 °F 41% 30.13 in 10.0 mi WNW 3.5 mph - N/A   Scattered Clouds
10:56 AM 51.1 °F - 25.0 °F 36% 30.13 in 10.0 mi Variable 3.5 mph - N/A   Mostly Cloudy
11:56 AM 53.1 °F - 23.0 °F 31% 30.11 in 10.0 mi Calm Calm - N/A   Overcast
12:56 PM 57.9 °F - 21.0 °F 24% 30.10 in 10.0 mi NNE 5.8 mph - N/A   Mostly Cloudy
1:56 PM 59.0 °F - 19.9 °F 22% 30.09 in 10.0 mi Variable 4.6 mph - N/A   Mostly Cloudy
2:56 PM 61.0 °F - 18.0 °F 19% 30.06 in 10.0 mi Variable 6.9 mph - N/A   Mostly Cloudy
3:56 PM 60.1 °F - 15.1 °F 17% 30.05 in 10.0 mi Calm Calm - N/A   Mostly Cloudy
4:56 PM 62.1 °F - 14.0 °F 15% 30.04 in 10.0 mi North 6.9 mph - N/A   Mostly Cloudy
5:56 PM 61.0 °F - 15.1 °F 17% 30.04 in 10.0 mi Variable 4.6 mph - N/A   Mostly Cloudy
6:56 PM 60.1 °F - 16.0 °F 18% 30.03 in 10.0 mi ENE 9.2 mph - N/A   Overcast
7:56 PM 57.0 °F - 16.0 °F 20% 30.04 in 10.0 mi ENE 6.9 mph - N/A   Overcast
8:56 PM 55.0 °F - 17.1 °F 23% 30.05 in 10.0 mi ENE 4.6 mph - N/A   Overcast
9:56 PM 54.0 °F - 18.0 °F 24% 30.05 in 10.0 mi East 3.5 mph - N/A   Mostly Cloudy
10:56 PM 54.0 °F - 23.0 °F 30% 30.05 in 10.0 mi NW 5.8 mph - N/A   Overcast
11:56 PM 53.1 °F - 24.1 °F 32% 30.04 in 10.0 mi NW 5.8 mph - N/A   Overcast